Time,TemperatureF,DewpointF,PressureIn,WindDirection,WindDirectionDegrees,WindSpeedMPH,WindSpeedGustMPH,Humidity,HourlyPrecipIn,Conditions,Clouds,dailyrainin,SolarRadiationWatts/m^2,SoftwareType,DateUTC
2013-02-19 00:00:00,29.7,22.4,29.78,NW,323,0.0,0.0,74,0.00,,,0.00,0,Wunderground v.1.15,2013-02-19 08:00:00,
2013-02-19 00:09:00,29.9,22.3,29.78,NW,306,0.0,0.0,73,0.00,,,0.00,0,Wunderground v.1.15,2013-02-19 08:09:00,
2013-02-19 00:14:00,29.8,22.2,29.78,NW,306,0.0,0.0,73,0.00,,,0.00,0,Wunderground v.1.15,2013-02-19 08:14:00,
2013-02-19 00:19:00,29.6,22.0,29.77,NW,306,0.0,0.0,73,0.00,,,0.00,0,Wunderground v.1.15,2013-02-19 08:19:00,
2013-02-19 00:24:00,29.4,22.1,29.77,NW,306,0.0,0.0,74,0.00,,,0.00,0,Wunderground v.1.15,2013-02-19 08:24:00,
2013-02-19 00:29:00,29.3,22.0,29.77,NW,306,0.0,0.0,74,0.00,,,0.00,0,Wunderground v.1.15,2013-02-19 08:29:00,
2013-02-19 00:39:00,29.1,21.5,29.77,NW,306,0.0,0.0,73,0.00,,,0.00,0,Wunderground v.1.15,2013-02-19 08:39:00,
2013-02-19 00:44:00,28.7,21.5,29.77,NW,306,0.0,0.0,74,0.00,,,0.00,0,Wunderground v.1.15,2013-02-19 08:44:00,
2013-02-19 00:54:00,27.8,21.2,29.76,NW,306,0.0,0.0,76,0.00,,,0.00,0,Wunderground v.1.15,2013-02-19 08:54:00,
2013-02-19 01:00:00,27.4,21.1,29.76,NW,306,0.0,0.0,77,0.00,,,0.00,0,Wunderground v.1.15,2013-02-19 09:00:00,
2013-02-19 01:09:00,26.2,20.0,29.76,NW,306,0.0,0.0,77,0.00,,,0.00,0,Wunderground v.1.15,2013-02-19 09:09:00,
2013-02-19 01:14:00,25.8,19.9,29.76,NW,306,0.0,0.0,78,0.00,,,0.00,0,Wunderground v.1.15,2013-02-19 09:14:00,
2013-02-19 01:19:00,25.3,20.0,29.76,NW,306,0.0,0.0,80,0.00,,,0.00,0,Wunderground v.1.15,2013-02-19 09:19:00,
2013-02-19 01:24:00,25.1,20.1,29.76,NW,306,0.0,0.0,81,0.00,,,0.00,0,Wunderground v.1.15,2013-02-19 09:24:00,
2013-02-19 01:34:00,24.9,20.2,29.76,NW,306,0.0,0.0,82,0.00,,,0.00,0,Wunderground v.1.15,2013-02-19 09:34:00,
2013-02-19 01:39:00,24.7,20.0,29.76,NW,306,0.0,0.0,82,0.00,,,0.00,0,Wunderground v.1.15,2013-02-19 09:39:00,
2013-02-19 01:44:00,24.5,19.8,29.76,NW,306,0.0,0.0,82,0.00,,,0.00,0,Wunderground v.1.15,2013-02-19 09:44:00,
2013-02-19 01:49:00,24.4,19.7,29.76,NW,306,0.0,0.0,82,0.00,,,0.00,0,Wunderground v.1.15,2013-02-19 09:49:00,
2013-02-19 01:54:00,24.2,19.8,29.76,NW,306,0.0,0.0,83,0.00,,,0.00,0,Wunderground v.1.15,2013-02-19 09:54:00,
2013-02-19 02:00:00,24.0,19.6,29.76,NW,306,0.0,0.0,83,0.00,,,0.00,0,Wunderground v.1.15,2013-02-19 10:00:00,
2013-02-19 02:09:00,23.8,19.9,29.76,NW,306,0.0,0.0,85,0.00,,,0.00,0,Wunderground v.1.15,2013-02-19 10:09:00,
2013-02-19 02:14:00,23.8,19.9,29.76,NW,306,0.0,0.0,85,0.00,,,0.00,0,Wunderground v.1.15,2013-02-19 10:14:00,
2013-02-19 02:24:00,23.9,20.3,29.75,NW,306,0.0,0.0,86,0.00,,,0.00,0,Wunderground v.1.15,2013-02-19 10:24:00,
2013-02-19 02:29:00,24.0,20.1,29.75,NW,306,0.0,0.0,85,0.00,,,0.00,0,Wunderground v.1.15,2013-02-19 10:29:00,
2013-02-19 02:34:00,24.1,20.2,29.75,NW,306,0.0,0.0,85,0.00,,,0.00,0,Wunderground v.1.15,2013-02-19 10:34:00,
2013-02-19 02:39:00,24.2,20.1,29.75,NW,306,0.0,0.0,84,0.00,,,0.00,0,Wunderground v.1.15,2013-02-19 10:39:00,
2013-02-19 02:44:00,24.2,20.1,29.75,NW,306,0.0,0.0,84,0.00,,,0.00,0,Wunderground v.1.15,2013-02-19 10:44:00,
2013-02-19 02:49:00,24.1,20.0,29.74,NW,306,0.0,0.0,84,0.00,,,0.00,0,Wunderground v.1.15,2013-02-19 10:49:00,
2013-02-19 03:00:00,24.2,20.3,29.74,NW,306,0.0,0.0,85,0.00,,,0.00,0,Wunderground v.1.15,2013-02-19 11:00:00,
2013-02-19 03:09:00,24.3,20.2,29.74,NW,306,0.0,0.0,84,0.00,,,0.00,0,Wunderground v.1.15,2013-02-19 11:09:00,
2013-02-19 03:14:00,24.5,20.4,29.74,NW,306,0.0,0.0,84,0.00,,,0.00,0,Wunderground v.1.15,2013-02-19 11:14:00,
2013-02-19 03:19:00,24.5,20.4,29.74,NW,306,0.0,0.0,84,0.00,,,0.00,0,Wunderground v.1.15,2013-02-19 11:19:00,
2013-02-19 03:24:00,24.6,20.2,29.74,NW,306,0.0,0.0,83,0.00,,,0.00,0,Wunderground v.1.15,2013-02-19 11:24:00,
2013-02-19 03:34:00,24.5,20.1,29.74,NW,306,0.0,0.0,83,0.00,,,0.00,0,Wunderground v.1.15,2013-02-19 11:34:00,
2013-02-19 03:39:00,24.3,19.9,29.74,NW,306,0.0,0.0,83,0.00,,,0.00,0,Wunderground v.1.15,2013-02-19 11:39:00,
2013-02-19 03:44:00,24.2,19.8,29.74,NW,306,0.0,0.0,83,0.00,,,0.00,0,Wunderground v.1.15,2013-02-19 11:44:00,
2013-02-19 03:49:00,24.0,19.9,29.74,NW,306,0.0,0.0,84,0.00,,,0.00,0,Wunderground v.1.15,2013-02-19 11:49:00,
2013-02-19 04:00:00,23.9,19.8,29.74,NW,306,0.0,0.0,84,0.00,,,0.00,0,Wunderground v.1.15,2013-02-19 12:00:00,
2013-02-19 04:09:00,23.9,19.8,29.74,NW,306,0.0,0.0,84,0.00,,,0.00,0,Wunderground v.1.15,2013-02-19 12:09:00,
2013-02-19 04:14:00,23.8,19.9,29.74,NW,306,0.0,0.0,85,0.00,,,0.00,0,Wunderground v.1.15,2013-02-19 12:14:00,
2013-02-19 04:19:00,23.8,19.9,29.74,NW,306,0.0,0.0,85,0.00,,,0.00,0,Wunderground v.1.15,2013-02-19 12:19:00,
2013-02-19 04:24:00,23.7,19.9,29.74,NW,306,0.0,0.0,85,0.00,,,0.00,0,Wunderground v.1.15,2013-02-19 12:24:00,
2013-02-19 04:29:00,23.4,19.6,29.74,NW,306,0.0,0.0,85,0.00,,,0.00,0,Wunderground v.1.15,2013-02-19 12:29:00,
2013-02-19 04:39:00,23.4,19.6,29.74,NW,306,0.0,0.0,85,0.00,,,0.00,0,Wunderground v.1.15,2013-02-19 12:39:00,
2013-02-19 04:44:00,23.3,19.5,29.74,NW,306,0.0,0.0,85,0.00,,,0.00,0,Wunderground v.1.15,2013-02-19 12:44:00,
2013-02-19 04:54:00,23.2,19.4,29.74,NW,306,0.0,0.0,85,0.00,,,0.00,0,Wunderground v.1.15,2013-02-19 12:54:00,
2013-02-19 05:00:00,23.0,19.4,29.73,NW,306,0.0,0.0,86,0.00,,,0.00,0,Wunderground v.1.15,2013-02-19 13:00:00,
2013-02-19 05:09:00,23.0,19.7,29.73,NW,306,0.0,0.0,87,0.00,,,0.00,0,Wunderground v.1.15,2013-02-19 13:09:00,
2013-02-19 05:14:00,23.4,19.8,29.74,NW,306,0.0,0.0,86,0.00,,,0.00,0,Wunderground v.1.15,2013-02-19 13:14:00,
2013-02-19 05:19:00,23.4,19.8,29.74,NW,306,0.0,0.0,86,0.00,,,0.00,0,Wunderground v.1.15,2013-02-19 13:19:00,
2013-02-19 05:24:00,23.5,19.7,29.74,NW,306,0.0,0.0,85,0.00,,,0.00,0,Wunderground v.1.15,2013-02-19 13:24:00,
2013-02-19 05:29:00,23.5,19.7,29.74,NW,306,0.0,0.0,85,0.00,,,0.00,0,Wunderground v.1.15,2013-02-19 13:29:00,
2013-02-19 05:34:00,23.4,19.3,29.74,NW,306,0.0,0.0,84,0.00,,,0.00,0,Wunderground v.1.15,2013-02-19 13:34:00,
2013-02-19 05:44:00,22.8,19.0,29.74,NW,306,0.0,0.0,85,0.00,,,0.00,0,Wunderground v.1.15,2013-02-19 13:44:00,
2013-02-19 05:54:00,22.6,18.8,29.74,NW,306,0.0,0.0,85,0.00,,,0.00,0,Wunderground v.1.15,2013-02-19 13:54:00,
2013-02-19 06:00:00,22.6,19.0,29.74,NW,306,0.0,0.0,86,0.00,,,0.00,0,Wunderground v.1.15,2013-02-19 14:00:00,
2013-02-19 06:09:00,22.4,19.1,29.74,NW,306,0.0,0.0,87,0.00,,,0.00,0,Wunderground v.1.15,2013-02-19 14:09:00,
2013-02-19 06:14:00,22.4,19.1,29.74,NW,306,0.0,0.0,87,0.00,,,0.00,0,Wunderground v.1.15,2013-02-19 14:14:00,
2013-02-19 06:24:00,21.8,18.0,29.75,NW,306,0.0,0.0,85,0.00,,,0.00,0,Wunderground v.1.15,2013-02-19 14:24:00,
2013-02-19 06:29:00,21.7,17.9,29.75,NW,306,0.0,0.0,85,0.00,,,0.00,0,Wunderground v.1.15,2013-02-19 14:29:00,
2013-02-19 06:39:00,21.0,17.5,29.75,NW,306,0.0,0.0,86,0.00,,,0.00,0,Wunderground v.1.15,2013-02-19 14:39:00,
2013-02-19 06:44:00,20.4,16.9,29.74,NW,306,0.0,0.0,86,0.00,,,0.00,0,Wunderground v.1.15,2013-02-19 14:44:00,
2013-02-19 06:49:00,20.1,16.9,29.74,NW,306,0.0,0.0,87,0.00,,,0.00,0,Wunderground v.1.15,2013-02-19 14:49:00,
2013-02-19 07:00:00,20.5,18.0,29.74,NW,306,0.0,0.0,90,0.00,,,0.00,9,Wunderground v.1.15,2013-02-19 15:00:00,
2013-02-19 07:09:00,21.0,18.5,29.75,NW,306,0.0,0.0,90,0.00,,,0.00,18,Wunderground v.1.15,2013-02-19 15:09:00,
2013-02-19 07:14:00,20.9,18.2,29.75,NW,306,0.0,0.0,89,0.00,,,0.00,23,Wunderground v.1.15,2013-02-19 15:14:00,
2013-02-19 07:19:00,20.6,17.3,29.75,NW,306,0.0,0.0,87,0.00,,,0.00,33,Wunderground v.1.15,2013-02-19 15:19:00,
2013-02-19 07:29:00,20.7,18.0,29.75,NW,306,0.0,0.0,89,0.00,,,0.00,62,Wunderground v.1.15,2013-02-19 15:29:00,
2013-02-19 07:39:00,21.1,18.6,29.75,NW,306,0.0,0.0,90,0.00,,,0.00,77,Wunderground v.1.15,2013-02-19 15:39:00,
2013-02-19 07:44:00,21.7,19.5,29.75,NW,306,0.0,0.0,91,0.00,,,0.00,93,Wunderground v.1.15,2013-02-19 15:44:00,
2013-02-19 07:49:00,22.1,19.9,29.75,NW,306,0.0,0.0,91,0.00,,,0.00,104,Wunderground v.1.15,2013-02-19 15:49:00,
2013-02-19 07:54:00,22.5,20.3,29.76,NW,306,0.0,0.0,91,0.00,,,0.00,98,Wunderground v.1.15,2013-02-19 15:54:00,
2013-02-19 08:00:00,22.9,20.7,29.76,NW,306,0.0,0.0,91,0.00,,,0.00,105,Wunderground v.1.15,2013-02-19 16:00:00,
2013-02-19 08:09:00,23.4,20.9,29.76,NW,306,0.0,0.0,90,0.00,,,0.00,214,Wunderground v.1.15,2013-02-19 16:09:00,
2013-02-19 08:14:00,23.9,21.4,29.76,NW,306,0.0,0.0,90,0.00,,,0.00,279,Wunderground v.1.15,2013-02-19 16:14:00,
2013-02-19 08:19:00,24.3,21.8,29.77,NW,306,0.0,0.0,90,0.00,,,0.00,276,Wunderground v.1.15,2013-02-19 16:19:00,
2013-02-19 08:29:00,25.4,22.6,29.77,NW,306,1.0,2.0,89,0.00,,,0.00,345,Wunderground v.1.15,2013-02-19 16:29:00,
2013-02-19 08:39:00,26.5,22.9,29.77,NW,313,1.0,3.0,86,0.00,,,0.00,355,Wunderground v.1.15,2013-02-19 16:39:00,
2013-02-19 08:44:00,27.0,23.1,29.77,NW,314,2.0,4.0,85,0.00,,,0.00,359,Wunderground v.1.15,2013-02-19 16:44:00,
2013-02-19 08:49:00,27.3,23.1,29.77,NW,315,2.0,2.0,84,0.00,,,0.00,387,Wunderground v.1.15,2013-02-19 16:49:00,
2013-02-19 08:54:00,27.6,23.1,29.77,NW,315,1.0,2.0,83,0.00,,,0.00,406,Wunderground v.1.15,2013-02-19 16:54:00,
2013-02-19 09:00:00,28.0,23.5,29.77,NW,315,0.0,0.0,83,0.00,,,0.00,392,Wunderground v.1.15,2013-02-19 17:00:00,
2013-02-19 09:09:00,29.0,23.9,29.77,NW,323,1.0,1.0,81,0.00,,,0.00,461,Wunderground v.1.15,2013-02-19 17:09:00,
2013-02-19 09:14:00,29.5,24.1,29.77,NW,323,0.0,1.0,80,0.00,,,0.00,410,Wunderground v.1.15,2013-02-19 17:14:00,
2013-02-19 09:19:00,30.1,24.4,29.77,NW,323,0.0,0.0,79,0.00,,,0.00,427,Wunderground v.1.15,2013-02-19 17:19:00,
2013-02-19 09:29:00,31.2,25.1,29.78,NW,319,0.0,2.0,78,0.00,,,0.00,469,Wunderground v.1.15,2013-02-19 17:29:00,
2013-02-19 09:34:00,31.6,25.2,29.77,NW,326,0.0,2.0,77,0.00,,,0.00,452,Wunderground v.1.15,2013-02-19 17:34:00,
2013-02-19 09:39:00,31.7,25.3,29.78,NNE,22,1.0,1.0,77,0.00,,,0.00,383,Wunderground v.1.15,2013-02-19 17:39:00,
2013-02-19 09:49:00,31.6,24.9,29.78,NE,54,1.0,1.0,76,0.00,,,0.00,281,Wunderground v.1.15,2013-02-19 17:49:00,
2013-02-19 09:54:00,31.7,25.0,29.78,NE,54,1.0,2.0,76,0.00,,,0.00,294,Wunderground v.1.15,2013-02-19 17:54:00,
2013-02-19 10:00:00,32.0,25.3,29.78,NE,54,1.0,4.0,76,0.00,,,0.00,313,Wunderground v.1.15,2013-02-19 18:00:00,
2013-02-19 10:09:00,32.3,25.3,29.78,NE,55,2.0,2.0,75,0.00,,,0.00,285,Wunderground v.1.15,2013-02-19 18:09:00,
2013-02-19 10:14:00,32.5,25.5,29.78,NE,55,1.0,2.0,75,0.00,,,0.00,287,Wunderground v.1.15,2013-02-19 18:14:00,
2013-02-19 10:24:00,33.2,25.8,29.78,ENE,57,1.0,3.0,74,0.00,,,0.00,469,Wunderground v.1.15,2013-02-19 18:24:00,
2013-02-19 10:34:00,33.7,25.6,29.78,ENE,71,2.0,2.0,72,0.00,,,0.00,380,Wunderground v.1.15,2013-02-19 18:34:00,
2013-02-19 10:39:00,33.8,25.4,29.78,ENE,76,2.0,2.0,71,0.00,,,0.00,362,Wunderground v.1.15,2013-02-19 18:39:00,
2013-02-19 10:44:00,34.0,25.6,29.78,East,82,1.0,1.0,71,0.00,,,0.00,457,Wunderground v.1.15,2013-02-19 18:44:00,
2013-02-19 10:49:00,34.1,25.7,29.78,East,98,0.0,1.0,71,0.00,,,0.00,571,Wunderground v.1.15,2013-02-19 18:49:00,
2013-02-19 10:54:00,34.6,25.1,29.78,ESE,107,1.0,1.0,68,0.00,,,0.00,585,Wunderground v.1.15,2013-02-19 18:54:00,
2013-02-19 10:59:00,35.1,25.6,29.78,East,82,1.0,2.0,68,0.00,,,0.00,563,Wunderground v.1.15,2013-02-19 18:59:00,
2013-02-19 11:09:00,36.0,26.1,29.78,East,80,2.0,5.0,67,0.00,,,0.00,512,Wunderground v.1.15,2013-02-19 19:09:00,
2013-02-19 11:14:00,36.0,25.4,29.78,ENE,77,2.0,5.0,65,0.00,,,0.00,520,Wunderground v.1.15,2013-02-19 19:14:00,
2013-02-19 11:19:00,36.3,25.3,29.78,NE,55,3.0,3.0,64,0.00,,,0.00,571,Wunderground v.1.15,2013-02-19 19:19:00,
2013-02-19 11:24:00,36.8,25.8,29.78,NE,51,2.0,3.0,64,0.00,,,0.00,517,Wunderground v.1.15,2013-02-19 19:24:00,
2013-02-19 11:29:00,37.1,25.7,29.78,NE,52,1.0,1.0,63,0.00,,,0.00,524,Wunderground v.1.15,2013-02-19 19:29:00,
2013-02-19 11:34:00,37.4,25.6,29.78,NE,52,1.0,3.0,62,0.00,,,0.00,566,Wunderground v.1.15,2013-02-19 19:34:00,
2013-02-19 11:44:00,38.0,25.7,29.78,ENE,78,2.0,3.0,61,0.00,,,0.00,575,Wunderground v.1.15,2013-02-19 19:44:00,
2013-02-19 11:49:00,38.1,25.4,29.78,SSE,165,2.0,2.0,60,0.00,,,0.00,594,Wunderground v.1.15,2013-02-19 19:49:00,
2013-02-19 11:54:00,38.4,25.7,29.78,ESE,109,2.0,2.0,60,0.00,,,0.00,663,Wunderground v.1.15,2013-02-19 19:54:00,
2013-02-19 11:59:00,38.7,26.8,29.78,SE,127,3.0,3.0,62,0.00,,,0.00,791,Wunderground v.1.15,2013-02-19 19:59:00,
2013-02-19 12:09:00,39.0,26.3,29.77,SSE,147,4.0,4.0,60,0.00,,,0.00,807,Wunderground v.1.15,2013-02-19 20:09:00,
2013-02-19 12:14:00,39.3,26.6,29.77,East,83,3.0,4.0,60,0.00,,,0.00,802,Wunderground v.1.15,2013-02-19 20:14:00,
2013-02-19 12:19:00,39.7,26.5,29.77,SE,140,3.0,4.0,59,0.00,,,0.00,795,Wunderground v.1.15,2013-02-19 20:19:00,
2013-02-19 12:24:00,39.9,26.3,29.78,ESE,103,4.0,7.0,58,0.00,,,0.00,800,Wunderground v.1.15,2013-02-19 20:24:00,
2013-02-19 12:29:00,39.6,26.4,29.78,SSE,157,4.0,4.0,59,0.00,,,0.00,791,Wunderground v.1.15,2013-02-19 20:29:00,
2013-02-19 12:34:00,39.8,26.6,29.78,ESE,110,5.0,6.0,59,0.00,,,0.00,788,Wunderground v.1.15,2013-02-19 20:34:00,
2013-02-19 12:39:00,39.7,26.5,29.78,SE,140,4.0,9.0,59,0.00,,,0.00,782,Wunderground v.1.15,2013-02-19 20:39:00,
2013-02-19 12:49:00,39.9,26.7,29.78,East,98,5.0,8.0,59,0.00,,,0.00,770,Wunderground v.1.15,2013-02-19 20:49:00,
2013-02-19 12:54:00,40.3,26.7,29.78,SE,132,6.0,8.0,58,0.00,,,0.00,765,Wunderground v.1.15,2013-02-19 20:54:00,
2013-02-19 12:59:00,40.3,26.3,29.78,East,92,5.0,5.0,57,0.00,,,0.00,733,Wunderground v.1.15,2013-02-19 20:59:00,
2013-02-19 13:09:00,40.4,25.9,29.78,ESE,113,5.0,5.0,56,0.00,,,0.00,735,Wunderground v.1.15,2013-02-19 21:09:00,
2013-02-19 13:19:00,40.2,25.7,29.78,SE,146,6.0,6.0,56,0.00,,,0.00,693,Wunderground v.1.15,2013-02-19 21:19:00,
2013-02-19 13:24:00,40.6,25.7,29.78,ESE,110,5.0,6.0,55,0.00,,,0.00,687,Wunderground v.1.15,2013-02-19 21:24:00,
2013-02-19 13:29:00,40.8,24.5,29.78,SE,144,5.0,6.0,52,0.00,,,0.00,673,Wunderground v.1.15,2013-02-19 21:29:00,
2013-02-19 13:34:00,40.8,25.4,29.78,SE,140,6.0,9.0,54,0.00,,,0.00,656,Wunderground v.1.15,2013-02-19 21:34:00,
2013-02-19 13:39:00,40.6,23.9,29.78,SSE,163,5.0,5.0,51,0.00,,,0.00,645,Wunderground v.1.15,2013-02-19 21:39:00,
2013-02-19 13:44:00,41.0,24.7,29.78,SE,126,5.0,5.0,52,0.00,,,0.00,629,Wunderground v.1.15,2013-02-19 21:44:00,
2013-02-19 13:54:00,41.1,24.3,29.78,ESE,114,5.0,5.0,51,0.00,,,0.00,608,Wunderground v.1.15,2013-02-19 21:54:00,
2013-02-19 13:59:00,41.6,24.8,29.78,SE,128,4.0,7.0,51,0.00,,,0.00,598,Wunderground v.1.15,2013-02-19 21:59:00,
2013-02-19 14:09:00,41.2,24.9,29.79,ESE,106,4.0,4.0,52,0.00,,,0.00,578,Wunderground v.1.15,2013-02-19 22:09:00,
2013-02-19 14:14:00,41.4,24.6,29.78,ESE,121,4.0,7.0,51,0.00,,,0.00,568,Wunderground v.1.15,2013-02-19 22:14:00,
2013-02-19 14:19:00,41.1,24.3,29.79,ESE,108,5.0,5.0,51,0.00,,,0.00,571,Wunderground v.1.15,2013-02-19 22:19:00,
2013-02-19 14:24:00,41.5,24.7,29.79,East,90,4.0,5.0,51,0.00,,,0.00,524,Wunderground v.1.15,2013-02-19 22:24:00,
2013-02-19 14:29:00,41.2,24.9,29.79,ESE,104,4.0,4.0,52,0.00,,,0.00,554,Wunderground v.1.15,2013-02-19 22:29:00,
2013-02-19 14:34:00,41.5,25.2,29.79,East,86,3.0,4.0,52,0.00,,,0.00,543,Wunderground v.1.15,2013-02-19 22:34:00,
2013-02-19 14:39:00,41.5,24.7,29.79,SSE,153,4.0,5.0,51,0.00,,,0.00,527,Wunderground v.1.15,2013-02-19 22:39:00,
2013-02-19 14:49:00,41.6,25.3,29.79,ESE,121,4.0,7.0,52,0.00,,,0.00,501,Wunderground v.1.15,2013-02-19 22:49:00,
2013-02-19 14:54:00,41.9,25.5,29.80,ESE,116,4.0,7.0,52,0.00,,,0.00,482,Wunderground v.1.15,2013-02-19 22:54:00,
2013-02-19 15:00:00,42.2,25.8,29.80,SSE,152,5.0,5.0,52,0.00,,,0.00,473,Wunderground v.1.15,2013-02-19 23:00:00,
2013-02-19 15:09:00,42.1,26.2,29.80,SE,129,4.0,6.0,53,0.00,,,0.00,141,Wunderground v.1.15,2013-02-19 23:09:00,
2013-02-19 15:14:00,42.6,26.2,29.80,SE,136,5.0,6.0,52,0.00,,,0.00,114,Wunderground v.1.15,2013-02-19 23:14:00,
2013-02-19 15:19:00,42.6,26.2,29.81,South,183,4.0,4.0,52,0.00,,,0.00,471,Wunderground v.1.15,2013-02-19 23:19:00,
2013-02-19 15:29:00,42.5,26.6,29.81,SSE,157,4.0,4.0,53,0.00,,,0.00,455,Wunderground v.1.15,2013-02-19 23:29:00,
2013-02-19 15:34:00,42.4,26.0,29.81,ESE,123,4.0,5.0,52,0.00,,,0.00,79,Wunderground v.1.15,2013-02-19 23:34:00,
2013-02-19 15:39:00,41.9,26.0,29.81,SE,144,5.0,5.0,53,0.00,,,0.00,348,Wunderground v.1.15,2013-02-19 23:39:00,
2013-02-19 15:44:00,41.8,25.9,29.81,SSE,157,6.0,6.0,53,0.00,,,0.00,69,Wunderground v.1.15,2013-02-19 23:44:00,
2013-02-19 15:49:00,41.8,25.9,29.81,SSE,147,4.0,4.0,53,0.00,,,0.00,74,Wunderground v.1.15,2013-02-19 23:49:00,
2013-02-19 15:59:00,41.8,26.4,29.81,SE,132,4.0,9.0,54,0.00,,,0.00,329,Wunderground v.1.15,2013-02-19 23:59:00,
2013-02-19 16:09:00,41.9,26.0,29.81,SSE,166,4.0,4.0,53,0.00,,,0.00,258,Wunderground v.1.15,2013-02-20 00:09:00,
2013-02-19 16:14:00,41.9,26.0,29.82,SSE,157,5.0,5.0,53,0.00,,,0.00,190,Wunderground v.1.15,2013-02-20 00:14:00,
2013-02-19 16:19:00,41.5,26.1,29.82,SSE,165,5.0,5.0,54,0.00,,,0.00,105,Wunderground v.1.15,2013-02-20 00:19:00,
2013-02-19 16:24:00,41.6,26.2,29.82,SSE,156,4.0,5.0,54,0.00,,,0.00,88,Wunderground v.1.15,2013-02-20 00:24:00,
2013-02-19 16:34:00,41.4,26.9,29.82,SE,136,4.0,6.0,56,0.00,,,0.00,60,Wunderground v.1.15,2013-02-20 00:34:00,
2013-02-19 16:39:00,41.1,26.6,29.82,SSE,157,5.0,5.0,56,0.00,,,0.00,53,Wunderground v.1.15,2013-02-20 00:39:00,
2013-02-19 16:44:00,40.9,26.4,29.82,SSE,161,5.0,5.0,56,0.00,,,0.00,42,Wunderground v.1.15,2013-02-20 00:44:00,
2013-02-19 16:49:00,40.8,26.7,29.83,SSE,150,5.0,5.0,57,0.00,,,0.00,51,Wunderground v.1.15,2013-02-20 00:49:00,
2013-02-19 16:54:00,40.5,26.4,29.83,SE,131,5.0,7.0,57,0.00,,,0.00,30,Wunderground v.1.15,2013-02-20 00:54:00,